Terug naar catalogus

KIKU 1

ETS 1

ActiefWetenschapLEO
NORAD 8197·PAYLOAD·🇯🇵 Japan

Gelanceerd Sep 9, 1975 vanaf Tanegashima Space Center

Loading…

Volgende Passages (komende 24 uur)

TLE

VersSource: Space-Track

Epoch: Sep 14, 2026, 05:48 UTC

1 08197U 75082A   26257.24192476 -.00000122  00000-0  63246-5 0  9996
2 08197  46.9873 245.0415 0085131  62.5974 312.1582 13.59605200534539

Volg KIKU 1 in realtime met AllMySat

Download on the App Store